Regional Weather Roundup
Issued by NWS

Home | Current Version | Previous Version | Text Only | Print | Product List | Glossary On
Versions: 1 2 3 4 5 6 7 8 9 10 11 12 13 14 15 16 17 18 19 20 21 22 23 24 25 26 27 28 29 30 31 32 33 34 35 36 37 38 39 40 41 42 43 44 45 46 47 48 49 50
000
ASUS43 KDTX 130710
RWRMI
MICHIGAN HOURLY REGIONAL WEATHER ROUNDUP
NATIONAL WEATHER SERVICE DETROIT/PONTIAC MI
200 AM EST WED DEC 13 2017

NOTE: "FAIR" INDICATES FEW OR NO CLOUDS BELOW 12,000 FEET WITH NO
SIGNIFICANT WEATHER AND/OR OBSTRUCTION TO VISIBILITY.

MIZ047>049-052>055-059>063-066>070-074>076-081>083-130800-
SOUTHEAST LOWER MICHIGAN

CITY           SKY/WX    TMP DP  RH WIND       PRES   REMARKS
ADRIAN         CLOUDY    17   8  67 W7        29.88F WCI   8
ALMA           CLOUDY    15  12  89 SW3       29.84F
ANN ARBOR      CLOUDY    14   6  70 W8        29.85S WCI   3
BAD AXE        CLOUDY    11   4  71 NW10      29.81S WCI  -2
CARO           CLOUDY    14   6  72 W6        29.83F WCI   5
DETROIT CITY   CLOUDY    14   8  77 W6        29.86R WCI   5
DETROIT        PTCLDY    15   6  67 W9        29.87R WCI   3
FLINT          CLOUDY    14   7  73 W6        29.84F WCI   5
GROSSE ILE     CLEAR     15   7  70 W10       29.86S WCI   2
HILLSDALE      CLOUDY    18  10  73 SW6       29.84F WCI   9
HOWELL         CLOUDY    15   9  76 NW3       29.83F

CITY           SKY/WX    TMP DP  RH WIND       PRES   REMARKS
JACKSON        CLOUDY    16   8  71 SW7       29.84F WCI   6
LAMBERTVILLE   CLOUDY    18   9  68 W7        29.88S WCI   8
LANSING        CLOUDY    17   8  67 W5        29.85F WCI  10
LAPEER         CLOUDY    14   5  67 NW5       29.83S WCI   6
MASON          CLOUDY    18   6  60 CALM      29.84F
MONROE         MOCLDY    13   2  61 W3        29.87S
MT. CLEMENS    CLEAR     10   4  74 W7        29.82S WCI  -1
PONTIAC        FLURRIES  13  10  88 W8        29.81S WCI   2
PORT HOPE        N/A     15   6  67 NW18G24   29.79R WCI  -2
PORT HURON     CLEAR      9   1  72 W3        29.82S
TRI CITIES     CLOUDY    15   8  73 W5        29.85F WCI   8
MIDLAND        CLOUDY    15   8  71 CALM      29.84F
TROY           CLOUDY    16   9  73 W5        29.86S WCI   9
SAGINAW HB     CLOUDY    16   9  73 W3        29.84F
$$
MIZ043>046-050>051-056>058-064>065-071>073-077>080-130800-
SOUTHWEST LOWER MICHIGAN

CITY           SKY/WX    TMP DP  RH WIND       PRES   REMARKS
BATTLE CREEK   CLOUDY    16  13  88 S7        29.85F WCI   6
BENTON HARBOR  CLOUDY    22   8  55 W8        29.86F WCI  12
BIG RAPIDS     CLOUDY    15  10  79 CALM      29.80F
COLDWATER      FLURRIES  17  14  87 SW3       29.86F
FREMONT        CLOUDY    16  13  90 CALM      29.82F
HOLLAND        MOCLDY    16  13  88 S6        29.85F WCI   7
GRAND RAPIDS   CLOUDY    17  13  84 SW7       29.84F WCI   8
IONIA          CLOUDY    17  10  73 SW6       29.83F WCI   8
KALAMAZOO      CLOUDY    15  12  88 S3        29.86F
LUDINGTON      CLOUDY    21  11  65 CALM      29.82S
MARSHALL       CLOUDY    16  11  82 SW5       29.85F WCI   9
MOUNT PLEASANT CLOUDY    16  10  80 CALM      29.82F
MUSKEGON       CLOUDY    18  13  80 SE6       29.85F WCI  10
SOUTH HAVEN    MOCLDY    25  11  57 W3        29.85F
$$
MIZ016>042-130800-
NORTHERN LOWER MICHIGAN

CITY           SKY/WX    TMP DP  RH WIND       PRES   REMARKS
ALPENA         CLOUDY    10   4  76 NW7       29.81S WCI  -1
BEAVER ISLAND  FLURRIES  15  10  80 E5        29.80F WCI   7
BELLAIRE       FLURRIES  14  10  85 CALM      29.82F
CADILLAC       CLOUDY    13  10  85 CALM      29.75F
CHARLEVOIX     CLOUDY    19  11  71 NW9       29.82F WCI   7
FRANKFORT      CLOUDY    21  11  66 CALM      29.81F
GAYLORD        CLOUDY     8   1  73 NE5       29.74F WCI   0
GRAYLING       FLURRIES  10   4  77 CALM      29.78F
HARBOR SPRINGS CLOUDY    11   3  71 NE6       29.79F WCI   1
HOUGHTON LAKE  CLOUDY    12   5  73 W5        29.78F WCI   4
MANISTEE       FLURRIES  17  12  80 E5        29.81F WCI  10
OSCODA         CLEAR      1  -5  75 W6        29.81S WCI -11
PELLSTON       CLOUDY     9   6  88 NE6       29.81F WCI  -1
ROGERS CITY    FLURRIES  11   6  79 NW7       29.82S WCI   0
TRAVERSE CITY  CLOUDY    16  11  80 CALM      29.80F
$$
MIZ007>008-015-130800-
EASTERN UPPER MICHIGAN

CITY           SKY/WX    TMP DP  RH WIND       PRES   REMARKS
KINROSS        CLOUDY    -4  -8  83 E6        29.81F WCI -16
MACKINAC ISLAN FLURRIES   6   2  82 NE7       29.80F WCI  -5
NEWBERRY       CLOUDY     8   7  98 CALM      29.78F
S. S. MARIE    CLOUDY    -6 -11  79 CALM      29.83S
MUNISING         N/A     13   7  77 S8        29.78F WCI   2
$$
MIZ004>006-011>014-085-130800-
CENTRAL UPPER MICHIGAN

CITY           SKY/WX    TMP DP  RH WIND       PRES   REMARKS
MANISTIQUE     CLOUDY    10   3  72 CALM      29.80S
ESCANABA       CLOUDY     7   2  80 CALM      29.81F
MENOMINEE      CLOUDY    12   7  80 CALM      29.82F
SAWYER-GWINN   CLOUDY     8   4  83 CALM      29.75S
$$
MIZ001>003-009>011-084-130800-
WESTERN UPPER MICHIGAN

CITY           SKY/WX    TMP DP  RH WIND       PRES   REMARKS
IRON MOUNTAIN  CLOUDY    11   4  73 SE5       29.73F WCI   3
HOUGHTON       CLOUDY    10   4  76 S3        29.71F
COPPER HARBOR    N/A     12   7  80 S5        29.76F WCI   4
IRONWOOD       LGT SNOW  12   7  79 SE6       29.64F WCI   3
$$

ABBREVIATIONS USED IN REMARKS
   TC - TEMPERATURE IN CELSIUS
  WCI - WIND CHILL INDEX
   HX - HEAT INDEX
  VSB - VISIBILITY





USA.gov is the U.S. government's official web portal to all federal, state and local government web resources and services.